Regional Weather Roundup
Issued by NWS

Home | Current Version | Previous Version | Graphics & Text | Print | Product List | Glossary On
Versions: 1 2 3 4 5 6 7 8 9 10 11 12 13 14 15 16 17 18 19 20 21 22 23 24 25 26 27 28 29 30 31 32 33 34 35 36 37 38 39 40 41 42 43 44 45 46 47 48 49 50
021
ASUS43 KDMX 121006
RWRIA

WEATHER ROUNDUP FOR IOWA
NATIONAL WEATHER SERVICE DES MOINES IA
400 AM CST TUE DEC 12 2017

NOTE: "FAIR" INDICATES FEW OR NO CLOUDS BELOW 12,000 FEET WITH NO
SIGNIFICANT WEATHER AND/OR OBSTRUCTIONS TO VISIBILITY.

* - THESE STATIONS ARE NOT NWS STATIONS...THUS NOT UNDER NWS
QUALITY CONTROL.  THEY ALSO DO NOT REPORT WEATHER SUCH
AS PRECIPITATION OR FOG.

IAZ001>003-012>014-020>022-031>034-043>046-121100-
   NORTHWEST IOWA

CITY           SKY/WX    TMP DP  RH WIND       PRES   REMARKS
CARROLL *      CLEAR     14   9  79 W9        30.29S WCI   2
CHEROKEE *     CLOUDY    14  11  90 CALM      30.30F
DENISON *      CLOUDY    14  10  85 NW6       30.33S WCI   5
LE MARS *      CLOUDY    12  10  92 CALM      30.32F
ORANGE CITY *  CLOUDY    12  12 100 W5        30.30S WCI   4
SHELDON *      CLOUDY    10   9  92 W7        30.27F WCI   0
SIOUX CITY     CLOUDY    13  11  92 NW8       30.33F WCI   2
SPENCER        CLOUDY    11   8  88 W7        30.29R WCI   0
STORM LAKE *   CLOUDY    12   9  85 NW12      30.28S WCI  -2
$$

IAZ055>058-069>071-079>083-090>094-121100-
   SOUTHWEST IOWA

CITY           SKY/WX    TMP DP  RH WIND       PRES   REMARKS
ATLANTIC *     CLEAR     16  12  86 NW9       30.31F WCI   4
AUDUBON *      CLEAR     16  10  79 NW5       30.29F WCI   9
CLARINDA *     CLEAR     19  12  73 N7        30.36S WCI  10
COUNCIL BLFS * CLEAR     18  16  93 NW5       30.33F WCI  11
CRESTON *      CLEAR     14  10  85 NW10      30.29S WCI   1
HARLAN  *      CLOUDY    14  10  85 CALM      30.35F
LAMONI         CLEAR     16  11  80 NW9       30.28R WCI   4
RED OAK *      CLEAR     18  12  79 N6        30.34F WCI   9
SHENANDOAH *   CLEAR     19  14  79 NW7       30.36F WCI  10
$$

IAZ047>049-059>061-072>074-084-121100-
   CENTRAL IOWA

CITY           SKY/WX    TMP DP  RH WIND       PRES   REMARKS
AMES           CLEAR     16   8  71 NW14      30.26S WCI   2
ANKENY *       CLEAR     16  10  79 NW7       30.29S WCI   6
BOONE *        CLEAR     14   7  73 NW14      30.25R WCI  -1
CHARITON *     CLEAR     16  12  86 NW13      30.25S WCI   2
DES MOINES     CLEAR     16   9  74 NW13      30.28S WCI   2
GRINNELL*      CLEAR     15  11  87 NW13      30.23S WCI   0
KNOXVILLE *    CLEAR     16  10  79 NW12      30.24S WCI   3
MARSHALLTOWN   CLEAR     13   9  84 NW14      30.22F WCI  -2
NEWTON *       CLEAR     16  10  79 NW12      30.24S WCI   3
PELLA *        CLEAR     16  12  82 NW9       30.26S WCI   5
PERRY *          N/A     14   8  75 W10       30.29S WCI   2
$$

IAZ004>006-015-016-023>025-035-036-121100-
   NORTH CENTRAL IOWA

CITY           SKY/WX    TMP DP  RH WIND       PRES   REMARKS
ALGONA *       CLEAR     12   9  85 NW10      30.25S WCI  -1
CLARION *      CLEAR     12   7  79 NW13      30.24F WCI  -3
ESTHERVILLE    CLEAR     11   7  84 NW15      30.26S WCI  -5
FORT DODGE *   CLEAR     13   8  81 VRB6      30.27R WCI   4
MASON CITY     CLEAR     10   5  80 NW15      30.23F WCI  -7
FOREST CITY *    N/A     14   9  79 NW15      30.22S WCI  -1
WEBSTER CITY * CLEAR     14   5  67 NW13      30.24R WCI   0
IOWA FALLS *     N/A     13   9  83 NW12      30.24S WCI   0
$$

IAZ007>011-017>019-026>030-037>042-050>054-066-121100-
   NORTHEAST IOWA

CITY           SKY/WX    TMP DP  RH WIND       PRES   REMARKS
CEDAR RAPIDS   CLEAR     18  14  84 NW13        N/A  WCI   5
CHARLES CITY * MOCLDY    14  10  85 NW12      30.21R WCI   0
CLINTON *      PTCLDY    19  13  77 NW16      30.14R WCI   4
DECORAH *      CLOUDY    14  10  85 NW9G15    30.15S WCI   2
DUBUQUE        CLEAR     16   9  74 NW20      30.11S WCI  -1
MONTICELLO *   CLEAR     18  10  73 NW14      30.15S WCI   4
OELWEIN *      PTCLDY    16  14  93 NW21      30.17F WCI  -2
WATERLOO       CLEAR     13   9  84 NW12      30.21S WCI  -1
$$

IAZ064-065-067-068-078-121100-
   EAST CENTRAL IOWA

CITY           SKY/WX    TMP DP  RH WIND       PRES   REMARKS
DAVENPORT      PTCLDY    20  13  74 NW14G22   30.17R WCI   7
IOWA CITY      CLEAR     22  13  68 NW13      30.21R WCI  10
MT. PLEASANT * CLEAR     21  12  68 NW16G22   30.19S WCI   7
MUSCATINE *    CLEAR     23  14  68 NW17      30.19S WCI   9
QUAD CITIES    CLEAR     22  13  68 NW15      30.14R WCI   9
$$

IAZ062-063-075>077-085>089-095>099-121100-
   SOUTHEAST IOWA

CITY           SKY/WX    TMP DP  RH WIND       PRES   REMARKS
BURLINGTON     CLEAR     23  15  71 NW14G23   30.17R WCI  11
FAIRFIELD *    CLEAR     21  14  73 NW15G24   30.21R WCI   8
FORT MADISON * CLEAR     23  16  74 NW14G20   30.19R WCI  11
KEOKUK *       CLEAR     25  16  68 NW14G23   30.19R WCI  13
OSKALOOSA *      N/A     17  13  84 NW13      30.24S WCI   4
WASHINGTON *   CLEAR     21  16  79 NW17G24   30.21S WCI   7
$$

ABBREVIATIONS USED IN REMARKS
   TC - TEMPERATURES IN CELSIUS
  WCI - WIND CHILL INDEX
   HX - HEAT INDEX
  VSB - VISIBILITY
$$





USA.gov is the U.S. government's official web portal to all federal, state and local government web resources and services.